Weather History for KBPT - January, 2014

Change the Weather History Date:

Sunday, January 5, 2014

  Actual Average Record
Temperature  
Mean Temperature 51 °F 52 °F  
Max Temperature 68 °F 62 °F 80 °F (1927)
Min Temperature 34 °F 43 °F 21 °F (1969)
Degree Days  
Heating Degree Days 14 13  
Month to date heating degree days 82 65  
Since 1 July heating degree days 737 615  
Cooling Degree Days 0 0  
Month to date cooling degree days 0 0  
Year to date cooling degree days 0 0  
Growing Degree Days 1 (Base 50)    
Moisture  
Dew Point 45 °F    
Average Humidity 70    
Maximum Humidity 90    
Minimum Humidity 49    
Precipitation  
Precipitation 0.24 in 0.18 in 2.59 in (1929)
Month to date precipitation 0.40 0.88  
Year to date precipitation 0.40 0.88  
Snow  
Snow 0.00 in 0.00 in T in (1947)
Month to date snowfall 0.0 0.0  
Since 1 July snowfall 0.0 T  
Snow Depth 0.00 in    
Sea Level Pressure  
Sea Level Pressure 30.01 in    
Wind  
Wind Speed 16 mph (West)    
Max Wind Speed 30 mph    
Max Gust Speed 40 mph    
Visibility 8 miles    
Events Rain    
T = Trace of Precipitation, MM = Missing Value Source: NWS Daily Summary

Daily Weather History Graph

Daily Weather History Graph

Search for Another Location

Airport or City:

Trip Planner

Search our weather history database for the weather conditions in past years. The results will help you decide how hot, cold, wet, or windy it might be!

Date:

Astronomy

Jan. 05, 2014 Rise Set
Actual Time 7:12 AM CST 5:30 PM CST
Civil Twilight 6:46 AM CST 5:56 PM CST
Nautical Twilight 6:16 AM CST 6:26 PM CST
Astronomical Twilight 5:47 AM CST 6:55 PM CST
Moon 10:17 AM CST 10:34 PM CST
Length of Visible Light 11h 10m
Length of Day
10h 17m
Waxing Crescent, 25% of the Moon is Illuminated
Jan 5
Waxing Crescent
Jan 7
First Quarter
Jan 15
Full
Jan 23
Last Quarter
Jan 30
New

Hourly Weather History & Observations

Time (CST) Temp. Windchill Dew Point Humidity Pressure Visibility Wind Dir Wind Speed Gust Speed Precip Events Conditions
12:53 AM 64.0 °F - 55.9 °F 75% 29.91 in 10.0 mi SSE 16.1 mph 23.0 mph N/A   Overcast
1:53 AM 63.0 °F - 55.9 °F 78% 29.90 in 10.0 mi SSE 15.0 mph - N/A   Overcast
2:53 AM 63.0 °F - 57.0 °F 81% 29.88 in 10.0 mi SSE 13.8 mph - N/A   Overcast
3:53 AM 64.0 °F - 57.9 °F 80% 29.87 in 10.0 mi SSE 13.8 mph - N/A   Overcast
4:53 AM 63.0 °F - 57.0 °F 81% 29.86 in 10.0 mi South 10.4 mph - N/A   Overcast
5:53 AM 63.0 °F - 57.9 °F 84% 29.86 in 10.0 mi South 9.2 mph - N/A   Overcast
6:53 AM 63.0 °F - 57.9 °F 84% 29.87 in 10.0 mi South 10.4 mph - N/A   Overcast
7:53 AM 63.0 °F - 59.0 °F 87% 29.88 in 10.0 mi South 8.1 mph - N/A   Overcast
8:53 AM 64.9 °F - 59.0 °F 81% 29.90 in 10.0 mi South 10.4 mph - 0.00 in Rain Light Rain
9:48 AM 64.4 °F - 60.8 °F 88% 29.92 in 1.5 mi West 12.7 mph - 0.02 in Rain Heavy Rain
9:53 AM 64.0 °F - 61.0 °F 90% 29.92 in 3.0 mi SW 11.5 mph - 0.11 in Rain Heavy Rain
10:21 AM 64.4 °F - 62.6 °F 94% 29.93 in 3.0 mi WSW 9.2 mph - 0.13 in Rain Light Rain
10:39 AM 66.2 °F - 64.4 °F 94% 29.92 in 3.0 mi WSW 9.2 mph - 0.13 in   Overcast
10:53 AM 66.0 °F - 63.0 °F 90% 29.92 in 3.0 mi West 12.7 mph 18.4 mph 0.13 in Rain Light Rain
11:53 AM 52.0 °F - 48.9 °F 89% 29.96 in 8.0 mi NW 19.6 mph 28.8 mph 0.00 in   Overcast
12:53 PM 48.0 °F - 44.1 °F 86% 29.96 in 9.0 mi NW 19.6 mph 26.5 mph N/A   Overcast
1:07 PM 46.4 °F 40.1 °F 42.8 °F 87% 29.96 in 8.0 mi NW 15.0 mph 23.0 mph N/A   Overcast
1:14 PM 46.4 °F 39.8 °F 42.8 °F 87% 29.97 in 7.0 mi NW 16.1 mph 23.0 mph N/A   Overcast
1:53 PM 46.9 °F - 39.0 °F 74% 29.97 in 9.0 mi NW 18.4 mph 24.2 mph N/A   Overcast
2:53 PM 50.0 °F - 37.9 °F 63% 29.99 in 10.0 mi NNW 20.7 mph 28.8 mph N/A   Mostly Cloudy
3:53 PM 50.0 °F - 37.0 °F 61% 30.02 in 10.0 mi NNW 17.3 mph 24.2 mph N/A   Clear
4:53 PM 48.0 °F - 32.0 °F 54% 30.06 in 10.0 mi NNW 23.0 mph 35.7 mph N/A   Clear
5:53 PM 46.0 °F 38.0 °F 28.9 °F 51% 30.11 in 10.0 mi NNW 21.9 mph 29.9 mph N/A   Clear
6:53 PM 44.1 °F 34.8 °F 27.0 °F 51% 30.15 in 10.0 mi NNW 25.3 mph 36.8 mph N/A   Clear
7:53 PM 41.0 °F 32.8 °F 25.0 °F 53% 30.20 in 10.0 mi NNW 16.1 mph 28.8 mph N/A   Clear
8:53 PM 39.0 °F 28.8 °F 23.0 °F 53% 30.24 in 10.0 mi North 21.9 mph 28.8 mph N/A   Clear
9:53 PM 37.0 °F 28.1 °F 23.0 °F 57% 30.27 in 10.0 mi NNW 15.0 mph 27.6 mph N/A   Clear
10:53 PM 36.0 °F 27.1 °F 21.9 °F 57% 30.30 in 10.0 mi NNW 13.8 mph 24.2 mph N/A   Clear
11:53 PM 34.0 °F 21.8 °F 19.9 °F 56% 30.33 in 10.0 mi North 23.0 mph 28.8 mph N/A   Clear